Change the Weather History Date:

Monday, September 23, 2013

  Actual Average (KJAX) Record (KJAX)
Temperature  
Mean Temperature 76 °F 77 °F  
Max Temperature 80 °F 86 °F 95 °F (1925)
Min Temperature 71 °F 68 °F 53 °F (1897)
Degree Days  
Heating Degree Days 0 0  
Month to date heating degree days 0  
Since 1 July heating degree days 0  
Cooling Degree Days 10 12  
Month to date cooling degree days 321  
Year to date cooling degree days 2311  
Growing Degree Days 26 (Base 50)    
Moisture  
Dew Point 73 °F    
Average Humidity 98    
Maximum Humidity 100    
Minimum Humidity 84    
Precipitation  
Precipitation 0.00 in 0.26 in 5.10 in (1947)
Month to date precipitation 6.44  
Year to date precipitation 41.80  
Snow  
Snow 0.00 in 0.00 in 0.00 in (2002)
Month to date snowfall 0.0  
Since 1 July snowfall 0.0  
Since 1 September snowfall 0.0  
Snow Depth -    
Sea Level Pressure  
Sea Level Pressure 29.92 in    
Wind  
Wind Speed 0 mph (ENE)    
Max Wind Speed 6 mph    
Max Gust Speed -    
Visibility 7 miles    
Events Rain    
T = Trace of Precipitation, MM = Missing Value Source: NWS Daily Summary

Daily Weather History Graph

Daily Weather History Graph

Search for Another Location

Airport or City:

Trip Planner

Search our weather history database for the weather conditions in past years. The results will help you decide how hot, cold, wet, or windy it might be!

Date:

Astronomy

Sep. 23, 2013 Rise Set
Actual Time 7:16 AM EDT 7:22 PM EDT
Civil Twilight 6:52 AM EDT 7:46 PM EDT
Nautical Twilight 6:24 AM EDT 8:14 PM EDT
Astronomical Twilight 5:56 AM EDT 8:42 PM EDT
Moon 10:13 PM EDT (9/23) 11:15 AM EDT (9/23)
Length of Visible Light 12h 53m
Length of Day
12h 05m
Waning Gibbous, 81% of the Moon is Illuminated
Sep 23
Waning Gibbous
Sep 26
Last Quarter
Oct 4
New
Oct 11
First Quarter
Oct 18
Full

Hourly Weather History & Observations

Time (EDT) Temp. Heat Index Dew Point Humidity Pressure Visibility Wind Dir Wind Speed Gust Speed Precip Events Conditions
12:15 AM 71.6 °F - 71.6 °F 100% 29.87 in 10.0 mi Calm Calm - N/A   Scattered Clouds
12:35 AM 71.6 °F - 71.6 °F 100% 29.87 in 9.0 mi Calm Calm - N/A   Mostly Cloudy
12:55 AM 71.6 °F - 71.6 °F 100% 29.87 in 9.0 mi Calm Calm - N/A   Mostly Cloudy
1:15 AM 71.6 °F - 71.6 °F 100% 29.86 in 8.0 mi Calm Calm - N/A   Mostly Cloudy
1:35 AM 71.6 °F - 71.6 °F 100% 29.86 in 7.0 mi Calm Calm - N/A   Scattered Clouds
1:55 AM 71.6 °F - 71.6 °F 100% 29.86 in 7.0 mi Calm Calm - N/A   Mostly Cloudy
2:15 AM 71.6 °F - 71.6 °F 100% 29.86 in 7.0 mi Calm Calm - N/A   Overcast
2:35 AM 71.6 °F - 71.6 °F 100% 29.86 in 6.0 mi Calm Calm - N/A   Mostly Cloudy
2:55 AM 71.6 °F - 71.6 °F 100% 29.85 in 5.0 mi Calm Calm - N/A   Partly Cloudy
3:15 AM 71.6 °F - 71.6 °F 100% 29.86 in 7.0 mi Calm Calm - N/A   Scattered Clouds
3:35 AM 71.6 °F - 71.6 °F 100% 29.86 in 5.0 mi Calm Calm - N/A   Mostly Cloudy
3:55 AM 71.6 °F - 71.6 °F 100% 29.87 in 7.0 mi Calm Calm - N/A   Scattered Clouds
4:15 AM 71.6 °F - 71.6 °F 100% 29.87 in 7.0 mi Calm Calm - N/A   Scattered Clouds
4:35 AM 71.6 °F - 71.6 °F 100% 29.87 in 6.0 mi Calm Calm - N/A   Scattered Clouds
4:55 AM 71.6 °F - 71.6 °F 100% 29.88 in 6.0 mi Calm Calm - N/A   Partly Cloudy
5:15 AM 71.6 °F - 71.6 °F 100% 29.88 in 6.0 mi Calm Calm - N/A   Partly Cloudy
5:35 AM 71.6 °F - 71.6 °F 100% 29.89 in 5.0 mi Calm Calm - N/A   Clear
5:55 AM 71.6 °F - 71.6 °F 100% 29.89 in 5.0 mi Calm Calm - N/A   Partly Cloudy
6:15 AM 71.6 °F - 71.6 °F 100% 29.90 in 8.0 mi Calm Calm - N/A   Partly Cloudy
6:35 AM 71.6 °F - 71.6 °F 100% 29.91 in 7.0 mi Calm Calm - N/A   Partly Cloudy
6:50 AM 71.6 °F - 71.6 °F 100% 29.91 in 3.0 mi Calm Calm - N/A   Mostly Cloudy
7:50 AM 71.6 °F - 71.6 °F 100% 29.92 in 7.0 mi Calm Calm - N/A   Mostly Cloudy
8:50 AM 71.6 °F - 71.6 °F 100% 29.93 in 7.0 mi Calm Calm - N/A   Mostly Cloudy
10:35 AM 73.4 °F - 73.4 °F 100% 29.97 in 5.0 mi Calm Calm - N/A   Mostly Cloudy
10:50 AM 75.2 °F - 75.2 °F 100% 29.97 in 5.0 mi Calm Calm - N/A   Mostly Cloudy
11:15 AM 75.2 °F - 75.2 °F 100% 29.97 in 5.0 mi Variable 5.8 mph - N/A   Mostly Cloudy
11:50 AM 75.2 °F - 73.4 °F 94% 29.97 in 7.0 mi Calm Calm - N/A   Mostly Cloudy
12:50 PM 77.0 °F - 75.2 °F 94% 29.96 in 7.0 mi Calm Calm - N/A   Mostly Cloudy
1:50 PM 77.0 °F - 75.2 °F 94% 29.95 in 7.0 mi Calm Calm - N/A   Overcast
2:50 PM 77.0 °F - 75.2 °F 94% 29.93 in 7.0 mi Calm Calm - N/A   Mostly Cloudy
3:50 PM 80.6 °F 86.2 °F 75.2 °F 84% 29.93 in 7.0 mi Variable 4.6 mph - N/A   Mostly Cloudy
4:50 PM 78.8 °F - 75.2 °F 89% 29.93 in 10.0 mi Variable 4.6 mph - N/A   Scattered Clouds
5:50 PM 80.6 °F 86.2 °F 75.2 °F 84% 29.94 in 10.0 mi East 4.6 mph - N/A   Unknown
6:50 PM 78.8 °F - 75.2 °F 89% 29.94 in 10.0 mi Variable 4.6 mph - N/A   Clear
7:50 PM 77.0 °F - 75.2 °F 94% 29.95 in 7.0 mi NE 4.6 mph - N/A   Mostly Cloudy
8:15 PM 77.0 °F - 75.2 °F 94% 29.95 in 8.0 mi Calm Calm - N/A   Scattered Clouds
8:35 PM 75.2 °F - 75.2 °F 100% 29.95 in 8.0 mi Calm Calm - N/A   Clear
8:55 PM 75.2 °F - 75.2 °F 100% 29.96 in 8.0 mi Calm Calm - N/A   Scattered Clouds
9:15 PM 75.2 °F - 75.2 °F 100% 29.97 in 7.0 mi Calm Calm - N/A   Mostly Cloudy
9:35 PM 75.2 °F - 75.2 °F 100% 29.97 in 8.0 mi Calm Calm - N/A   Overcast
9:55 PM 75.2 °F - 75.2 °F 100% 29.97 in 7.0 mi Calm Calm - N/A   Mostly Cloudy
10:15 PM 75.2 °F - 75.2 °F 100% 29.98 in 8.0 mi Calm Calm - N/A   Mostly Cloudy
10:35 PM 75.2 °F - 73.4 °F 94% 29.97 in 8.0 mi Calm Calm - N/A Rain Light Rain
10:55 PM 75.2 °F - 73.4 °F 94% 29.97 in 7.0 mi Calm Calm - N/A Rain Light Rain
11:15 PM 73.4 °F - 73.4 °F 100% 29.97 in 6.0 mi Calm Calm - N/A   Clear
11:35 PM 73.4 °F - 73.4 °F 100% 29.97 in 8.0 mi Calm Calm - N/A   Scattered Clouds
11:55 PM 73.4 °F - 73.4 °F 100% 29.97 in 7.0 mi Calm Calm - N/A   Mostly Cloudy